Location: ?????????
(38.5999°N, 22.7695°E)
Time: 11:37:10
(UTC+00:00)

Cosmos 1709 Rocket - Pass Details

Date: 23 May 2024
Orbit: 948 x 1001 km, 82.9° (Epoch: 23 June)

Event Time Altitude Azimuth Distance (km) Brightness Sun altitude
Exits shadow 00:05:02 46° 147° (SSE) 1,307 4.4 -26.4°
Maximum altitude 00:06:44 62° 92° (E) 1,110 4.3 -26.2°
Drops below altitude 10° 00:12:59 10° 14° (NNE) 2,772 7.3 -25.6°
Sets 00:15:34 0° 11° (N) 3,729 8.2 -25.4°
